Regional Weather Roundup
Issued by NWS

Home | Current Version | Previous Version | Graphics & Text | Print | Product List | Glossary On
Versions: 1 2 3 4 5 6 7 8 9 10 11 12 13 14 15 16 17 18 19 20 21 22 23 24 25 26 27 28 29 30 31 32 33 34 35 36 37 38 39 40 41 42 43 44 45 46 47 48 49 50
000
ASUS43 KMPX 290601
RWRMN
WEATHER ROUNDUP FOR MINNESOTA
NATIONAL WEATHER SERVICE TWIN CITIES/CHANHASSEN MN
100 AM CDT FRI MAY 29 2015


NOTE: "FAIR" INDICATES FEW OR NO CLOUDS BELOW 12,000 FEET WITH NO
SIGNIFICANT WEATHER AND/OR OBSTRUCTIONS TO VISIBILITY. N/A MEANS
CURRENT SKY AND/OR WEATHER CONDITIONS ARE NOT AVAILABLE.

MNZ060>063-068>070-290700-
   Twin Cities Metro

CITY           SKY/WX    TMP DP  RH WIND       PRES   REMARKS
TWIN CITIES    CLOUDY    72  57  59 S8        29.91F
6HR MIN TEMP:  72; 6HR MAX TEMP:  81;

ST PAUL        CLOUDY    69  57  65 SE7       29.92F
CRYSTAL        MOCLDY    72  57  59 S7        29.89F
BLAINE         MOCLDY    72  57  60 S7        29.91F
LAKEVILLE      CLOUDY    70  57  64 S6        29.92F
EDEN PRAIRIE   MOCLDY    71  58  63 S10       29.90F
6HR MIN TEMP:  71; 6HR MAX TEMP:  80;

SOUTH ST PAUL  CLOUDY    70  54  56 SE3       29.92F
LAKE ELMO      CLOUDY    68  57  68 SE6       29.93F
$$
MNZ001>005-007-008-013>017-022>024-027-028-290700-
   Northwest Minnesota

CITY           SKY/WX    TMP DP  RH WIND       PRES   REMARKS
BEMIDJI        RAIN      60  58  94 S6        29.85F
HALLOCK        CLOUDY    57  55  94 N13G20    29.90R
ROSEAU         CLOUDY    61  55  82 N8        29.85S
WARROAD        CLOUDY    61  55  82 NW7       29.85F
THIEF RVR FALL CLOUDY    63  61  94 NW10      29.86S
CROOKSTON      CLOUDY    63  61  94 N15G21    29.87R FOG
FOSSTON        CLOUDY    61  57  88 CALM      29.86S
DETROIT LAKES  LGT RAIN  59  59 100 S7        29.86F
MOORHEAD       RAIN      63  61  94 S6        29.87R
PARK RAPIDS    RAIN      61  59  93 S3        29.87F
MAHNOMEN       LGT RAIN  60  59  96 S6        29.86S
$$
MNZ006-009>011-018-025>026-290700-
   North Central Minnesota

CITY           SKY/WX    TMP DP  RH WIND       PRES   REMARKS
BAUDETTE       CLOUDY    60  59  96 NW6       29.84S
FLAG ISLAND    CLOUDY    59  57  94 NW9       29.84R
INTL FALLS     CLOUDY    59  57  93 CALM      29.84S
6HR MIN TEMP:  58; 6HR MAX TEMP:  62; 6HR PCP:  0.45;

WASKISH        CLOUDY    61  59  94 CALM      29.85S
BIG FORK       LGT RAIN  61  59  94 CALM      29.87F
LONGVILLE      RAIN      61  59  94 CALM      29.89S
GRAND RAPIDS   CLOUDY    66  54  63 CALM      29.88S
CRANE LAKE     RAIN      57  57 100 CALM      29.88F
COOK           CLOUDY    63  52  67 SE6       29.88F
WALKER         RAIN      59  57  94 SW3       29.87S
$$
MNZ012-019>021-037-290700-
   Northeast Minnesota

CITY           SKY/WX    TMP DP  RH WIND       PRES   REMARKS
DULUTH         CLOUDY    46  42  86 SE3       29.90F
6HR MIN TEMP:  44; 6HR MAX TEMP:  48;

HIBBING        CLOUDY    57  48  72 SW5       29.89F
EVELETH        CLOUDY    59  46  63 SW7       29.90F
DULUTH HARBOR  CLOUDY    43  41  93 NE3       29.94F
TWO HARBORS    CLOUDY    46  43  87 CALM      29.91F
SILVER BAY     CLOUDY    46  45  93 CALM      29.91F
GRAND MARAIS     N/A     40  39  97 SW6       29.93F
G MARAIS ARPRT CLOUDY    52  46  82 CALM      29.94F
$$
MNZ029>031-032-039>041-046>048-054>057-064-290700-
   West Central Minnesota

CITY           SKY/WX    TMP DP  RH WIND       PRES   REMARKS
FERGUS FALLS   LGT RAIN  61  61 100 S8        29.88F
WHEATON        CLOUDY    59  57  94 E14       29.88F
MORRIS         LGT RAIN  61  61 100 CALM      29.90F
ALEXANDRIA     CLOUDY    61  58  90 N6        29.91F
ELBOW LAKE     CLOUDY    60  59  99 SE7       29.88F
WADENA         LGT RAIN  61  59  94 CALM      29.88F
GLENWOOD       CLOUDY    63  57  82 NW13      29.91F
APPLETON       TSTM      64  61  88 N13G18    29.89F
BENSON         CLOUDY    64  57  77 NE14      29.90F
ORTONVILLE     MOCLDY    63  57  82 NE13      29.89F
MADISON        CLOUDY    68  57  68 N7        29.88R
WILLMAR        FAIR      66  61  82 CALM      29.89F
$$
MNZ033>034-036-042>043-049>051-058-059-290700-
   Central Minnesota

CITY           SKY/WX    TMP DP  RH WIND       PRES   REMARKS
ST CLOUD       PTCLDY    67  58  72 S9        29.87F
6HR MIN TEMP:  67; 6HR MAX TEMP:  80;

SAUK CENTRE    CLOUDY    66  57  74 NW10      29.91R
PAYNESVILLE    MOCLDY    63  57  81 SE6       29.89S
AITKIN         CLOUDY    70  54  56 S10       29.86S
PINE RIVER     RAIN      61  61 100 NW3       29.93F
BRAINERD       CLOUDY    69  55  60 W7        29.89R
STAPLES        HVY RAIN  61  57  88 NW3       29.91S
LONG PRAIRIE   CLOUDY    64  55  72 NW13G18   29.91F
LITTLE FALLS   MOCLDY    68  54  60 SW6       29.89S
LITCHFIELD     PTCLDY    66  63  88 CALM      29.89F
BUFFALO        PTCLDY    67  58  71 S5        29.90F
MAPLE LAKE     PTCLDY    68  61  77 S6        29.89F
$$
MNZ037-044-045-052-053-290700-
   East Central Minnesota

CITY           SKY/WX    TMP DP  RH WIND       PRES   REMARKS
PRINCETON      PTCLDY    70  59  68 S3        29.89F
MORA           MOCLDY    64  52  63 S3        29.91F
CAMBRIDGE      PTCLDY    70  55  60 S5        29.88F
RUSH CITY      PTCLDY    66  55  67 S5        29.90F
MOOSE LAKE     MOCLDY    45  43  93 CALM      29.89F
HINCKLEY       FAIR      66  55  68 S8        29.91S
CLOQUET        CLOUDY    43  43 100 E3        29.91F FOG
MCGREGOR       CLOUDY    63  52  67 S7        29.88F
$$
MNZ071>073-080-081-089-090-097-098-290700-
   Southwest Minnesota

CITY           SKY/WX    TMP DP  RH WIND       PRES   REMARKS
MONTEVIDEO     MOCLDY    66  59  77 SW6       29.87S THUNDER
GRANITE FALLS  MOCLDY    65  59  81 SE10      29.89F
CANBY          PTCLDY    67  58  75 S7        29.87S
MARSHALL       CLOUDY    64  55  72 S10       29.87S
REDWOOD FALLS  MOCLDY    66  60  81 S8        29.88F
OLIVIA         MOCLDY    63  55  77 S7        29.88F
PIPESTONE      PTCLDY    64  61  88 S10       29.89S
WINDOM         CLOUDY    66  61  82 S9        29.90F
WORTHINGTON    MOCLDY    64  59  82 S10       29.91S
JACKSON        CLOUDY    66  63  88 S9        29.92S
TRACY          MOCLDY    65  61  87 S10       29.89R
SLAYTON        PTCLDY    63  62  96 CALM      29.91R
$$
MNZ065>067-074>077-082>085-091>093-290700-
   South Central Minnesota

CITY           SKY/WX    TMP DP  RH WIND       PRES   REMARKS
MANKATO        CLOUDY    70  61  73 S9        29.92F
NEW ULM        CLOUDY    66  63  88 S8        29.91S
ST JAMES       CLOUDY    68  64  88 S6        29.92S
FAIRMONT       CLOUDY    66  59  77 S9        29.91F
GLENCOE        MOCLDY    68  62  81 CALM      29.90F
FARIBAULT      CLOUDY    70  61  73 S3        29.93F
OWATONNA       CLOUDY    70  57  64 S5        29.94F
WASECA         CLOUDY    68  59  73 S6        29.94F
ALBERT LEA     CLOUDY    70  61  73 S7        29.94S
$$
MNZ078>079-086>088-094>096-290700-
   Southeast Minnesota

CITY           SKY/WX    TMP DP  RH WIND       PRES   REMARKS
ROCHESTER      LGT RAIN  66  57  72 S8        29.97S
6HR MIN TEMP:  66; 6HR MAX TEMP:  76; 6HR PCP: TRACE;

RED WING       RAIN      66  59  77 E5        29.94S
STANTON        CLOUDY    69  57  65 CALM      29.92F
DODGE CENTER   CLOUDY    66  57  72 S7        29.95F
WINONA         DRIZZLE   70  55  60 SE5       29.97S
AUSTIN         CLOUDY    66  57  72 S3        29.95S
PRESTON        CLOUDY    65  55  72 S7        29.98S
$$
ABBREVIATIONS USED IN REMARKS
   TC - TEMPERATURES IN CELSIUS
  WCI - WIND CHILL INDEX
   HX - HEAT INDEX
  VSB - VISIBILITY
$$



USA.gov is the U.S. government's official web portal to all federal, state and local government web resources and services.